[[{"header":{"parameterUnit":"m.s-1","parameterCategory":1,"la1":30.2991,"la2":30.254,"lo1":-89.0895,"lo2":-89.0444,"dx":0.0017,"dy":0.0017,"nx":28,"ny":28,"refTime":"2023-01-14T03:00:00:Z","depth":0,"parameterNumber":2,"parameterNumberName":"U-component_of_WINDS"},"data":[0,0,0,0,0,0,0,0,0,0,0,0,0,0,0,0,0,0,0,0,0,0,0,0,0,0,0,0,0,0,0,0,0,0,0,0,0,0,0,0,0,0,0,0,0,0,0,0,0,0,0,0,0,0,0,0,0,0,-3.1962,-3.1961,0,-3.1937,-3.1937,-3.1937,-3.1867,-3.1866,-3.1864,-3.1863,-3.1839,-3.184,-3.184,0,0,0,0,0,0,0,0,0,0,0,0,0,-3.195,-3.1951,-3.1962,-3.1961,-3.1961,-3.1938,-3.1937,-3.1937,-3.1867,-3.1866,-3.1864,-3.1862,-3.1839,-3.1839,-3.184,0,0,0,0,0,0,0,0,0,0,0,0,0,-3.1944,-3.1951,-3.1962,-3.1924,-3.192,-3.1938,-3.1937,-3.1937,-3.1868,-3.1866,-3.1863,-3.1861,-3.1838,-3.1839,-3.1841,-3.1893,0,0,-3.1844,-3.1845,0,0,0,0,0,0,0,0,-3.1944,-3.1944,-3.193,-3.1926,-3.1922,-3.1903,-3.1924,-3.1922,-3.1868,-3.1888,-3.1863,-3.186,-3.1862,-3.1861,-3.1862,-3.1892,-3.1891,-3.1844,-3.1845,-3.1845,-3.1846,0,0,0,0,0,0,0,-3.1945,-3.1945,-3.1952,-3.1929,-3.1925,-3.1909,-3.1905,-3.1924,-3.1888,-3.1886,-3.1881,-3.1879,-3.186,-3.1861,-3.1861,-3.1891,-3.1844,-3.1845,-3.1846,-3.1846,-3.1964,-3.1966,0,0,0,0,0,0,-3.195,-3.1946,-3.1953,-3.1951,-3.1928,-3.1911,-3.1907,-3.1912,-3.1888,-3.1882,-3.1881,-3.1876,-3.186,-3.1859,-3.1859,-3.1919,-3.1845,-3.1847,-3.1847,-3.1962,-3.1965,-3.1967,0,0,0,0,0,0,-3.195,-3.1952,-3.1954,-3.1947,-3.1946,-3.1913,-3.1919,-3.1912,-3.1913,-3.1884,-3.1877,-3.1888,-3.1858,-3.1858,-3.1885,-3.1917,-3.1847,-3.1848,-3.1959,-3.1963,-3.1966,-3.2039,0,0,0,0,0,0,-3.195,-3.1952,-3.1971,-3.1948,-3.1947,-3.198,-3.1921,-3.1913,-3.1915,-3.1908,-3.1889,-3.1883,-3.1856,-3.1884,-3.1887,-3.1917,-3.1849,-3.1956,-3.1961,-3.1965,-3.2033,-3.2044,-3.2054,0,0,0,0,0,-3.195,-3.1993,-3.1972,-3.1973,-3.197,-3.1982,-3.1981,-3.1948,-3.1918,-3.1937,-3.1919,-3.1884,-3.1914,-3.1888,-3.189,-3.1921,-3.1954,-3.1959,-3.1965,-3.2029,-3.2042,-3.2054,0,0,0,0,0,0,-3.202,-3.1989,-3.1966,-3.2002,-3.1995,-3.197,-3.1992,-3.1964,-3.1965,-3.1959,-3.1919,-3.1915,-3.1948,-3.1938,-3.1909,-3.1972,-3.1928,-3.1934,-3.1976,-3.1989,-3.1999,-3.1999,-3.185,0,0,0,0,0,-3.2039,-3.2051,-3.2024,-3.2058,-3.2056,-3.2026,-3.2029,-3.2005,-3.1996,-3.1993,-3.1976,-3.197,-3.1977,-3.1983,-3.1989,-3.2033,-3.2027,-3.2056,-3.2066,-3.2075,-3.208,-3.2102,-3.2114,-3.1985,-3.1985,-3.1985,0,0,-3.208,-3.2064,-3.2074,-3.2072,-3.2064,-3.2077,-3.2023,-3.204,-3.2049,-3.1995,-3.202,-3.2008,-3.1998,-3.2034,-3.2049,-3.2027,-3.2115,-3.2082,-3.2089,-3.2089,-3.2109,-3.2121,-3.2132,-3.1989,-3.1988,-3.1988,0,0,-3.2159,-3.2149,-3.2177,-3.217,-3.2158,-3.2138,-3.2145,-3.2125,-3.2115,-3.2139,-3.2099,-3.2111,-3.2126,-3.212,-3.2119,-3.22,-3.2168,-3.2203,-3.2256,-3.2278,-3.2288,-3.2297,-3.2324,-3.2335,-3.2209,-3.2209,-3.2209,0,-3.221,-3.2228,-3.2195,-3.2213,-3.2214,-3.2167,-3.2195,-3.219,-3.2182,-3.2183,-3.2159,-3.2176,-3.2166,-3.22,-3.222,-3.2222,-3.2228,-3.2203,-3.2289,-3.2298,-3.2305,-3.2331,-3.2342,-3.2213,-3.2213,-3.2212,-3.2212,0,-3.2291,-3.2305,-3.2329,-3.2321,-3.2325,-3.2348,-3.2319,-3.2327,-3.2304,-3.2287,-3.2312,-3.23,-3.2301,-3.2309,-3.2286,-3.234,-3.2326,-3.2297,-3.2251,-3.2322,-3.2346,-3.2355,-3.2219,-3.2218,-3.2217,-3.2215,0,0,-3.241,-3.2386,-3.2394,-3.2391,-3.2376,-3.2386,-3.2409,-3.2411,-3.2418,-3.2415,-3.2432,-3.2447,-3.2419,-3.2419,-3.2396,-3.2416,-3.2479,-3.2383,-3.2382,-3.24,-3.2537,-3.2557,-3.2569,-3.246,-3.2462,-3.2463,-3.2537,0,-3.2483,-3.2518,-3.249,-3.2531,-3.2543,-3.2501,-3.252,-3.2514,-3.2499,-3.2508,-3.2493,-3.2503,-3.2467,-3.2466,-3.2484,-3.2468,-3.2506,-3.2462,-3.2474,-3.2475,-3.2475,-3.2581,-3.2602,-3.2672,-3.2546,-3.2547,-3.2548,0,-3.2572,-3.2573,-3.2615,-3.2599,-3.2603,-3.262,-3.2621,-3.263,-3.2623,-3.2611,-3.2611,-3.2584,-3.2605,-3.2564,-3.2593,-3.2564,-3.2568,-3.2561,-3.2563,-3.256,-3.2514,-3.2579,-3.2694,-3.2704,-3.2563,-3.2562,-3.2561,0,-3.2652,-3.2664,-3.2691,-3.2689,-3.2671,-3.2685,-3.2678,-3.2669,-3.2672,-3.2673,-3.2675,-3.2679,-3.2681,-3.2685,-3.2659,-3.2632,-3.2691,-3.2648,-3.2681,-3.2682,-3.2693,-3.2692,-3.2807,-3.2701,-3.27,-3.27,-3.27,0,-3.2735,-3.2762,-3.2726,-3.2742,-3.2771,-3.274,-3.277,-3.2759,-3.2752,-3.2765,-3.2731,-3.2744,-3.2711,-3.2721,-3.2702,-3.2728,-3.273,-3.2721,-3.2715,-3.2722,-3.2723,-3.2721,-3.2715,-3.2703,-3.2702,-3.2702,-3.2701,0,-3.2827,-3.2805,-3.283,-3.2812,-3.2809,-3.2831,-3.2815,-3.283,-3.2815,-3.2832,-3.2835,-3.281,-3.2821,-3.2797,-3.2805,-3.2792,-3.2828,-3.2816,-3.283,-3.2826,-3.2859,-3.2856,-3.2976,-3.2989,-3.2877,-3.2878,-3.2879,0,-3.288,-3.29,-3.2884,-3.2891,-3.2886,-3.2897,-3.2901,-3.2873,-3.2878,-3.2872,-3.2888,-3.2896,-3.29,-3.2919,-3.2902,-3.2908,-3.2894,-3.2936,-3.2895,-3.2902,-3.2892,-3.289,-3.2891,-3.2943,-3.2945,-3.2946,-3.2947,0,-3.2976,-3.2964,-3.2971,-3.2974,-3.298,-3.2981,-3.298,-3.2987,-3.2957,-3.2965,-3.2976,-3.2979,-3.2988,-3.2996,-3.2998,-3.2992,-3.2964,-3.2961,-3.2968,-3.2974,-3.2981,-3.2976,-3.2851,-3.2957,-3.2956,-3.2955,-3.2955,-3.2954,-3.3048,-3.3064,-3.3055,-3.3064,-3.3061,-3.3061,-3.3073,-3.306,-3.3069,-3.3072,-3.3056,-3.3071,-3.3064,-3.3065,-3.3062,-3.3073,-3.3054,-3.3065,-3.3068,-3.307,-3.3075,-3.2982,-3.3074,-3.3073,-3.3073,-3.3073,-3.3072,0,-3.314,-3.3133,-3.3142,-3.3142,-3.3149,-3.3124,-3.3122,-3.313,-3.3143,-3.314,-3.3145,-3.3158,-3.3167,-3.3152,-3.3158,-3.317,-3.3157,-3.3172,-3.3169,-3.3168,-3.3092,-3.3084,-3.3182,-3.3182,-3.3182,-3.3182,-3.3182,-3.3182,-3.3188,-3.3213,-3.3201,-3.3224,-3.3217,-3.3231,-3.3232,-3.3232,-3.3229,-3.3245,-3.3252,-3.3243,-3.3235,-3.3241,-3.3247,-3.3243,-3.3246,-3.3265,-3.3256,-3.3184,-3.3173,-3.3163,-3.3155,-3.3266,-3.3266,-3.333,-3.333,-3.3331]},{"header":{"parameterUnit":"m.s-1","parameterCategory":1,"la1":30.2991,"la2":30.254,"lo1":-89.0895,"lo2":-89.0444,"dx":0.0017,"dy":0.0017,"nx":28,"ny":28,"refTime":"2023-01-14T03:00:00:Z","depth":0,"parameterNumber":3,"parameterNumberName":"V-component_of_WINDS"},"data":[0,0,0,0,0,0,0,0,0,0,0,0,0,0,0,0,0,0,0,0,0,0,0,0,0,0,0,0,0,0,0,0,0,0,0,0,0,0,0,0,0,0,0,0,0,0,0,0,0,0,0,0,0,0,0,0,0,0,2.3807,2.3808,0,2.3843,2.3844,2.3844,2.3886,2.3886,2.3887,2.3888,2.392,2.392,2.3921,0,0,0,0,0,0,0,0,0,0,0,0,0,2.3772,2.3772,2.3807,2.3808,2.3808,2.3843,2.3844,2.3844,2.3885,2.3886,2.3887,2.3888,2.392,2.392,2.3921,0,0,0,0,0,0,0,0,0,0,0,0,0,2.3795,2.3773,2.3807,2.3833,2.3836,2.3843,2.3844,2.3844,2.3885,2.3886,2.3887,2.3888,2.392,2.392,2.3921,2.3904,0,0,2.3922,2.3922,0,0,0,0,0,0,0,0,2.3794,2.3797,2.3829,2.3831,2.3834,2.3861,2.3843,2.3864,2.3885,2.3866,2.3888,2.3889,2.3899,2.3902,2.3906,2.3906,2.3907,2.3922,2.3922,2.3922,2.3923,0,0,0,0,0,0,0,2.3792,2.3795,2.3821,2.3829,2.3833,2.3842,2.3847,2.3847,2.3877,2.3868,2.3871,2.3875,2.3901,2.3906,2.3907,2.3907,2.3922,2.3922,2.3923,2.3923,2.3897,2.3896,0,0,0,0,0,0,2.3787,2.3794,2.382,2.3822,2.3816,2.3842,2.3847,2.3851,2.3877,2.3882,2.3874,2.3877,2.3904,2.3907,2.3908,2.3892,2.3922,2.3923,2.3923,2.3898,2.3897,2.3896,0,0,0,0,0,0,2.3786,2.3789,2.3819,2.3809,2.3814,2.3842,2.3846,2.3852,2.3856,2.3882,2.3887,2.3874,2.3905,2.3908,2.3906,2.3893,2.3923,2.3923,2.3899,2.3897,2.3896,2.3857,0,0,0,0,0,0,2.3785,2.3789,2.3783,2.3809,2.3814,2.3816,2.3846,2.3852,2.3857,2.3861,2.3883,2.3887,2.3906,2.3905,2.3906,2.3895,2.3924,2.39,2.3898,2.3896,2.386,2.3855,2.3851,0,0,0,0,0,2.3784,2.3769,2.3783,2.3785,2.3808,2.3815,2.3818,2.3842,2.3856,2.3851,2.3867,2.3886,2.3895,2.3904,2.3906,2.3894,2.3901,2.3899,2.3897,2.3862,2.3856,2.3851,0,0,0,0,0,0,2.374,2.3773,2.3788,2.3782,2.3795,2.3822,2.3816,2.3834,2.3843,2.3846,2.3874,2.3878,2.3872,2.3883,2.3893,2.388,2.3901,2.3899,2.3874,2.3868,2.3863,2.3861,2.3924,0,0,0,0,0,2.373,2.3734,2.3762,2.3754,2.376,2.3787,2.3791,2.3808,2.3823,2.3828,2.3845,2.3857,2.3863,2.3866,2.3873,2.3862,2.3867,2.3855,2.385,2.3846,2.3844,2.3841,2.3836,2.3889,2.3889,2.3889,0,0,2.3708,2.3727,2.3727,2.3746,2.3758,2.3762,2.3791,2.3793,2.3796,2.3828,2.3828,2.384,2.3856,2.385,2.3848,2.3859,2.3831,2.3844,2.384,2.384,2.3838,2.3833,2.3828,2.3887,2.3887,2.3888,0,0,2.3671,2.3685,2.3681,2.3694,2.3713,2.3731,2.373,2.3754,2.3765,2.3765,2.379,2.3793,2.3802,2.3813,2.3819,2.3789,2.3807,2.379,2.3765,2.3761,2.3757,2.3754,2.3743,2.3739,2.3788,2.3788,2.3788,0,2.3641,2.3648,2.3676,2.3677,2.3684,2.3716,2.3712,2.3722,2.3742,2.3746,2.3758,2.3772,2.3784,2.3782,2.3775,2.3779,2.3778,2.3787,2.3756,2.3753,2.375,2.374,2.3736,2.3785,2.3786,2.3786,2.3786,0,2.3611,2.3616,2.361,2.3631,2.3638,2.3636,2.3662,2.3666,2.3683,2.37,2.37,2.3717,2.3728,2.3729,2.3744,2.3729,2.3735,2.3751,2.3772,2.3742,2.3734,2.373,2.3782,2.3783,2.3784,2.3784,0,0,2.3546,2.3584,2.3581,2.3592,2.3617,2.3621,2.362,2.3633,2.3636,2.3649,2.365,2.3657,2.3673,2.3681,2.3698,2.3695,2.367,2.3711,2.3712,2.3704,2.3655,2.3643,2.3639,2.3683,2.3682,2.3682,2.3654,0,2.3514,2.3517,2.3543,2.3538,2.3543,2.3574,2.3574,2.3589,2.3605,2.3611,2.3628,2.3634,2.3653,2.3658,2.3656,2.3674,2.3661,2.3676,2.3683,2.3683,2.3679,2.3634,2.3621,2.3594,2.3651,2.365,2.365,0,2.3476,2.349,2.3486,2.3513,2.3516,2.3516,2.353,2.3536,2.3553,2.3565,2.3575,2.3595,2.3597,2.3616,2.3619,2.3629,2.3633,2.3642,2.3642,2.3643,2.3665,2.3635,2.3586,2.3582,2.3645,2.3645,2.3646,0,2.343,2.3447,2.3448,2.3456,2.3487,2.3486,2.3498,2.3517,2.3524,2.3536,2.3541,2.3553,2.3559,2.3567,2.359,2.3602,2.359,2.3612,2.36,2.3599,2.3596,2.3596,2.3548,2.3598,2.3598,2.3598,2.3598,0,2.3392,2.3389,2.3428,2.3428,2.3426,2.3455,2.3452,2.3467,2.3484,2.3488,2.3514,2.3517,2.3547,2.3553,2.3571,2.3571,2.3573,2.3582,2.3587,2.358,2.3579,2.3583,2.3586,2.3597,2.3597,2.3597,2.3598,0,2.334,2.3366,2.3369,2.3399,2.3406,2.3403,2.3429,2.343,2.3448,2.3452,2.3455,2.3483,2.3492,2.3516,2.3529,2.3542,2.3536,2.3545,2.3531,2.3534,2.3521,2.3522,2.3474,2.347,2.3522,2.3522,2.3521,0,2.3314,2.3313,2.3343,2.3349,2.3361,2.3368,2.3376,2.3405,2.3411,2.3433,2.3431,2.3443,2.3453,2.3465,2.3486,2.3497,2.3507,2.3489,2.3508,2.3502,2.3507,2.3507,2.3508,2.3485,2.3484,2.3483,2.3483,0,2.3265,2.3279,2.3289,2.3305,2.3314,2.3327,2.3342,2.3344,2.3377,2.3383,2.3393,2.3401,2.3417,2.3427,2.3442,2.3454,2.3474,2.3477,2.3475,2.3468,2.346,2.3465,2.352,2.3478,2.3478,2.3479,2.3479,2.3479,2.3226,2.3227,2.3249,2.3261,2.3275,2.3289,2.3292,2.3312,2.3321,2.3337,2.3354,2.3362,2.3381,2.3403,2.3414,2.3421,2.3431,2.3428,2.3427,2.3426,2.3423,2.3459,2.3423,2.3424,2.3424,2.3424,2.3424,0,2.318,2.3196,2.3206,2.3227,2.3236,2.3256,2.3273,2.3279,2.3287,2.3304,2.3314,2.3326,2.3337,2.336,2.3373,2.3374,2.3383,2.3376,2.3377,2.3379,2.3413,2.3414,2.3369,2.3369,2.3369,2.3369,2.3369,2.3369,2.3156,2.316,2.3176,2.3187,2.3203,2.3213,2.3222,2.3234,2.3248,2.3261,2.3271,2.3286,2.3305,2.332,2.3331,2.3337,2.3341,2.3331,2.334,2.3371,2.3377,2.3382,2.3383,2.3332,2.3332,2.3307,2.3306,2.3306]}]]